Location: Newark
(25.6108°S, 54.5803°W)
Time: 20:22:58
(UTC+00:00)

Courier 1B - Pass Details

Date: 31 October 2020
Orbit: 962 x 1209 km, 28.3° (Epoch: 24 November)

Event Time Altitude Azimuth Distance (km) Brightness Sun altitude
Rises 02:10:08 0° 276° (W) 3,956 10.9 -46.5°
Enters shadow 02:11:10 - 276° (W) 3,605 10.6 -46.6°
Reaches altitude 10° 02:12:52 10° 275° (W) 3,031 - -46.8°
Maximum altitude 02:20:27 78° 188° (S) 1,211 - -47.4°
Drops below altitude 10° 02:28:22 10° 101° (ESE) 3,151 - -48.1°
Sets 02:31:15 0° 100° (E) 4,120 - -48.3°
